Location: Unspecified
(0.0000°N, 0.0000°E)
Time: 18:51:01
(UTC+00:00)

IRIDIUM 114 - Pass Details

Date: 23 November 2025
Orbit: 776 x 779 km, 86.4° (Epoch: 05 December)

Event Time Altitude Azimuth Distance (km) Brightness Sun altitude
Exits shadow 18:42:40 12° 32° (NNE) 2,210 6.2 -13.1°
Maximum altitude 18:46:50 30° 90° (E) 1,372 5.1 -14.1°
Drops below altitude 10° 18:51:19 10° 150° (SSE) 2,326 6.7 -15.1°
Sets 18:53:55 0° 161° (SSE) 3,256 7.6 -15.7°
